When you browse on this site, cookies collect data to enhance your experience and personalize the content and advertising you see.
Visit our Privacy Policy to learn more. By continuing to use the site, you agree to this use of cookies and data.
  • In Czech Republic
  • List of Countries
  • For 7 days
  • Water Temperature
  • Satellite Maps
  • Weather Map
  • Weather Widgets
  • user-avatar
    Login

    Hourly Weather Plyusninskoe

    Today, 24 January, Thursday

    Time Temperature Precipitation Wind Pressure Humidity
    00:00 -17°C° 0 mm 2 mps 745 mmHg 97%
    01:00 -18°C° 0 mm 2 mps 745 mmHg 97%
    02:00 -19°C° 0 mm 2 mps 745 mmHg 98%
    03:00 -19°C° 0 mm 2 mps 745 mmHg 98%
    04:00 -20°C° 0 mm 2 mps 744 mmHg 98%
    05:00 -20°C° 0 mm 2 mps 744 mmHg 98%
    06:00 -18°C° 0 mm 1 mps 744 mmHg 98%
    07:00 -18°C° 0 mm 1 mps 744 mmHg 97%
    08:00 -19°C° 0 mm 1 mps 744 mmHg 97%
    09:00 -19°C° 0 mm 2 mps 743 mmHg 95%
    10:00 -17°C° 0 mm 2 mps 743 mmHg 93%
    11:00 -16°C° 0 mm 2 mps 743 mmHg 91%
    12:00 -15°C° 0 mm 2 mps 743 mmHg 91%
    13:00 -14°C° 0 mm 2 mps 743 mmHg 91%
    14:00 -14°C° 0 mm 3 mps 743 mmHg 91%
    15:00 -13°C° 0 mm 2 mps 744 mmHg 92%
    16:00 -14°C° 0 mm 2 mps 744 mmHg 93%
    17:00 -14°C° 0 mm 2 mps 745 mmHg 95%
    18:00 -14°C° 0 mm 2 mps 745 mmHg 95%
    19:00 -14°C° 0 mm 2 mps 746 mmHg 95%
    20:00 -15°C° 0 mm 2 mps 746 mmHg 95%
    21:00 -16°C° 0 mm 2 mps 747 mmHg 96%
    22:00 -17°C° 0 mm 2 mps 747 mmHg 96%
    23:00 -18°C° 0 mm 2 mps 748 mmHg 97%

    Tomorrow, 25 January, Friday

    Time Temperature Precipitation Wind Pressure Humidity
    00:00 -19°C° 0 mm 2 mps 748 mmHg 98%
    01:00 -18°C° 0 mm 1 mps 749 mmHg 98%
    02:00 -18°C° 0 mm 1 mps 749 mmHg 99%
    03:00 -19°C° 0 mm 1 mps 750 mmHg 99%
    04:00 -19°C° 0 mm 1 mps 750 mmHg 99%
    05:00 -20°C° 0 mm 1 mps 750 mmHg 99%
    06:00 -20°C° 0 mm 1 mps 751 mmHg 98%
    07:00 -21°C° 0 mm 0 mps 751 mmHg 98%
    08:00 -21°C° 0 mm 0 mps 751 mmHg 98%
    09:00 -19°C° 0 mm 0 mps 752 mmHg 96%
    10:00 -17°C° 0 mm 0 mps 752 mmHg 93%
    11:00 -15°C° 0 mm 0 mps 752 mmHg 91%
    12:00 -15°C° 0 mm 0 mps 752 mmHg 91%
    13:00 -14°C° 0 mm 0 mps 752 mmHg 91%
    14:00 -14°C° 0 mm 0 mps 752 mmHg 91%
    15:00 -15°C° 0 mm 1 mps 752 mmHg 91%
    16:00 -16°C° 0 mm 1 mps 752 mmHg 91%
    17:00 -17°C° 0 mm 1 mps 752 mmHg 91%
    18:00 -17°C° 0 mm 1 mps 752 mmHg 91%
    19:00 -17°C° 0 mm 1 mps 752 mmHg 91%
    20:00 -19°C° 0 mm 2 mps 752 mmHg 91%
    21:00 -19°C° 0 mm 2 mps 752 mmHg 91%
    22:00 -19°C° 0 mm 2 mps 751 mmHg 91%
    23:00 -18°C° 0 mm 2 mps 751 mmHg 91%

    Day after tomorrow, 26 January, Saturday

    Time Temperature Precipitation Wind Pressure Humidity
    00:00 -18°C° 0 mm 2 mps 751 mmHg 90%
    01:00 -18°C° 0 mm 2 mps 750 mmHg 90%
    02:00 -18°C° 0 mm 2 mps 750 mmHg 90%
    03:00 -19°C° 0 mm 3 mps 749 mmHg 89%
    04:00 -19°C° 0 mm 3 mps 748 mmHg 89%
    05:00 -19°C° 0 mm 3 mps 747 mmHg 88%
    06:00 -19°C° 0 mm 3 mps 746 mmHg 88%
    07:00 -19°C° 0 mm 4 mps 746 mmHg 87%
    08:00 -19°C° 0 mm 4 mps 745 mmHg 86%
    09:00 -19°C° 0.6 mm 4 mps 744 mmHg 89%
    10:00 -19°C° 0.6 mm 4 mps 743 mmHg 92%
    11:00 -18°C° 0.6 mm 4 mps 742 mmHg 95%
    12:00 -18°C° 0.3 mm 4 mps 741 mmHg 95%
    13:00 -17°C° 0.3 mm 4 mps 741 mmHg 94%
    14:00 -17°C° 0.3 mm 4 mps 740 mmHg 94%
    15:00 -15°C° 0.4 mm 3 mps 739 mmHg 94%
    16:00 -15°C° 0.4 mm 3 mps 738 mmHg 94%
    17:00 -15°C° 0.4 mm 3 mps 737 mmHg 95%
    18:00 -14°C° 0.3 mm 3 mps 737 mmHg 95%
    19:00 -14°C° 0.3 mm 3 mps 736 mmHg 95%
    20:00 -14°C° 0.3 mm 3 mps 736 mmHg 95%
    21:00 -12°C° 0.4 mm 2 mps 735 mmHg 96%
    22:00 -12°C° 0.4 mm 2 mps 735 mmHg 96%
    23:00 -10°C° 0.4 mm 1 mps 734 mmHg 97%

    27 January, Sunday

    Time Temperature Precipitation Wind Pressure Humidity
    00:00 -10°C° 0.2 mm 1 mps 734 mmHg 97%
    01:00 -10°C° 0.2 mm 1 mps 734 mmHg 97%
    02:00 -10°C° 0.2 mm 1 mps 733 mmHg 97%
    03:00 -10°C° 0.2 mm 1 mps 733 mmHg 97%
    04:00 -11°C° 0.2 mm 1 mps 733 mmHg 97%
    05:00 -11°C° 0.2 mm 1 mps 732 mmHg 97%
    06:00 -12°C° 0.1 mm 1 mps 732 mmHg 97%
    07:00 -14°C° 0.1 mm 2 mps 732 mmHg 96%
    08:00 -15°C° 0.1 mm 2 mps 732 mmHg 96%
    09:00 -14°C° 0 mm 2 mps 733 mmHg 96%
    10:00 -14°C° 0 mm 2 mps 733 mmHg 95%
    11:00 -14°C° 0 mm 2 mps 733 mmHg 94%
    12:00 -15°C° 0 mm 3 mps 733 mmHg 94%
    13:00 -15°C° 0 mm 3 mps 733 mmHg 93%
    14:00 -15°C° 0 mm 3 mps 733 mmHg 93%
    15:00 -17°C° 0 mm 3 mps 733 mmHg 93%
    16:00 -18°C° 0 mm 3 mps 733 mmHg 94%
    17:00 -19°C° 0 mm 3 mps 734 mmHg 94%
    18:00 -19°C° 0 mm 3 mps 734 mmHg 94%
    19:00 -21°C° 0 mm 3 mps 734 mmHg 94%
    20:00 -21°C° 0 mm 3 mps 734 mmHg 95%
    21:00 -21°C° 0 mm 3 mps 735 mmHg 95%
    22:00 -21°C° 0 mm 3 mps 735 mmHg 95%
    23:00 -21°C° 0 mm 3 mps 735 mmHg 95%

    28 January, Monday

    Time Temperature Precipitation Wind Pressure Humidity
    00:00 -21°C° 0 mm 3 mps 736 mmHg 95%
    01:00 -21°C° 0 mm 3 mps 736 mmHg 95%
    02:00 -21°C° 0 mm 3 mps 736 mmHg 95%
    03:00 -21°C° 0 mm 3 mps 737 mmHg 95%
    04:00 -21°C° 0 mm 3 mps 737 mmHg 96%
    05:00 -19°C° 0 mm 2 mps 737 mmHg 96%
    06:00 -19°C° 0 mm 2 mps 738 mmHg 96%
    07:00 -19°C° 0 mm 2 mps 738 mmHg 96%
    08:00 -19°C° 0 mm 2 mps 739 mmHg 96%
    09:00 -18°C° 0 mm 2 mps 739 mmHg 96%
    10:00 -15°C° 0 mm 1 mps 739 mmHg 95%
    11:00 -14°C° 0 mm 1 mps 740 mmHg 94%
    12:00 -13°C° 0 mm 1 mps 740 mmHg 94%
    13:00 -13°C° 0 mm 1 mps 740 mmHg 94%
    14:00 -12°C° 0 mm 1 mps 740 mmHg 94%
    15:00 -14°C° 0 mm 1 mps 740 mmHg 94%
    16:00 -15°C° 0 mm 1 mps 740 mmHg 95%
    17:00 -18°C° 0 mm 2 mps 740 mmHg 96%
    18:00 -18°C° 0 mm 2 mps 740 mmHg 95%
    19:00 -18°C° 0 mm 2 mps 740 mmHg 94%
    20:00 -18°C° 0 mm 2 mps 740 mmHg 93%
    21:00 -18°C° 0.1 mm 3 mps 739 mmHg 93%
    22:00 -16°C° 0.1 mm 3 mps 739 mmHg 93%
    23:00 -15°C° 0.1 mm 3 mps 739 mmHg 93%

    29 January, Tuesday

    Time Temperature Precipitation Wind Pressure Humidity
    00:00 -14°C° 0.2 mm 3 mps 739 mmHg 93%
    01:00 -14°C° 0.2 mm 3 mps 739 mmHg 93%
    02:00 -13°C° 0.2 mm 3 mps 739 mmHg 93%
    03:00 -12°C° 0 mm 3 mps 738 mmHg 93%
    04:00 -12°C° 0 mm 3 mps 738 mmHg 94%
    05:00 -10°C° 0 mm 3 mps 738 mmHg 94%
    06:00 -10°C° 0 mm 3 mps 738 mmHg 94%
    07:00 -9°C° 0 mm 3 mps 738 mmHg 94%
    08:00 -8°C° 0 mm 3 mps 738 mmHg 94%
    09:00 -8°C° 0 mm 4 mps 738 mmHg 94%
    10:00 -7°C° 0 mm 4 mps 738 mmHg 93%
    11:00 -4°C° 0 mm 4 mps 738 mmHg 93%
    12:00 -4°C° 0 mm 4 mps 738 mmHg 92%
    13:00 -3°C° 0 mm 4 mps 738 mmHg 92%
    14:00 -2°C° 0 mm 4 mps 738 mmHg 91%
    15:00 -2°C° 0.1 mm 4 mps 739 mmHg 91%
    16:00 -2°C° 0.1 mm 4 mps 739 mmHg 92%
    17:00 -2°C° 0.1 mm 4 mps 739 mmHg 92%
    18:00 -2°C° 0 mm 4 mps 739 mmHg 93%
    19:00 -3°C° 0 mm 4 mps 739 mmHg 93%
    20:00 -3°C° 0 mm 4 mps 739 mmHg 93%
    21:00 -3°C° 0 mm 4 mps 739 mmHg 93%
    22:00 -3°C° 0 mm 4 mps 739 mmHg 93%
    23:00 -3°C° 0 mm 4 mps 739 mmHg 93%
    Show more